Flag for USA

Past Weather in 42°29'25"N, 71°50'52"W, USA — Yesterday and Last 2 Weeks

Now
69 °F

Clear.


Feels Like: 69 °F
Forecast: 76 / 64 °F
Wind: 3 mph from North

Location: Worcester Regional Airport

Current Time: Aug 7, 2020 at 5:10:35 am

Latest Report: Aug 7, 2020 at 3:54 am


Visibility: 10 mi

Pressure: 30.15 "Hg

Humidity: 49%

Dew Point: 49 °F

Location of 42°29'25"N, 71°50'52"WLocation

Past Weather in 42°29'25"N, 71°50'52"W — Graph

°F

42°29'25"N, 71°50'52"W Temperature Yesterday

Maximum temperature yesterday: 80 °F (at 3:54 pm)
Minimum temperature yesterday: 63 °F (at 1:54 am)
Average temperature yesterday: 71 °F

High & Low Weather Summary for the Past Weeks

 TemperatureHumidityPressure
High91 °F (Jul 27, 3:54 pm)97% (Jul 23, 3:54 am)30.16 "Hg (Jul 23, 3:54 am)
Low63 °F (Aug 6, 1:54 am)33% (Aug 1, 4:54 pm)29.65 "Hg (Aug 4, 5:54 pm)
Average76 °F67%29.95 "Hg
* Reported Jul 23 2:44 am — Aug 7 2:54 am, 42°29'25"N, 71°50'52"W. Weather by CustomWeather, © 2020

Note: Actual official high and low records may vary slightly from our data, if they occured in-between our weather recording intervals... More about our weather records

42°29'25"N, 71°50'52"W Weather History for the Previous 24 Hours

Scroll right to see more
 ConditionsComfort  
Time TempWeatherWind HumidityBarometerVisibility
2:54 am
Fri, Aug 7
69 °FClear.6 mph51%30.14 "Hg10 mi
1:54 am71 °FClear.3 mph49%30.15 "Hg10 mi
12:54 am68 °FClear.5 mph57%30.16 "Hg10 mi
11:54 pm
Thu, Aug 6
66 °FClear.5 mph75%30.16 "Hg10 mi
10:54 pm68 °FClear.7 mph73%30.16 "Hg10 mi
9:54 pm69 °FPassing clouds.6 mph70%30.16 "Hg10 mi
8:54 pm70 °FClear.5 mph64%30.13 "Hg10 mi
7:54 pm73 °FSunny.5 mph57%30.12 "Hg10 mi
6:54 pm78 °FSunny.6 mph46%30.10 "Hg10 mi
5:54 pm79 °FPassing clouds.8 mph44%30.10 "Hg10 mi
4:54 pm79 °FPassing clouds.13 mph44%30.10 "Hg10 mi
3:54 pm80 °FPassing clouds.12 mph42%30.11 "Hg10 mi
2:54 pm77 °FPartly sunny.6 mph48%30.12 "Hg10 mi
1:54 pm77 °FPassing clouds.9 mph48%30.14 "Hg10 mi
12:54 pm77 °FSunny.9 mph47%30.15 "Hg10 mi
11:54 am75 °FSunny.10 mph50%30.15 "Hg10 mi
10:54 am74 °FSunny.9 mph50%30.16 "Hg10 mi
9:54 am73 °FSunny.7 mph51%30.14 "Hg10 mi
8:54 am71 °FSunny.10 mph55%30.14 "Hg10 mi
7:54 am69 °FPassing clouds.10 mph57%30.14 "Hg10 mi
6:54 am66 °FSunny.8 mph61%30.13 "Hg10 mi
5:54 am63 °FScattered clouds.9 mph65%30.11 "Hg10 mi
Weather by CustomWeather, © 2020

See weather overview